Location: Desvres
(50.6688°N, 1.8348°E)
Time: 17:17:06
(UTC+00:00)

Daily predictions for brighter satellites

Satellite Brightness Start Highest point End
(mag) Time Altitude Azimuth Time Altitude Azimuth Time Altitude Azimuth
COSMOS 2487 3.8 18:32:25 10° SW 18:35:46 45° WNW 18:39:10 10° NNE
SL-8 R/B 4.5 18:31:35 10° SW 18:35:57 35° SSE 18:40:19 10° E
Cosmos 2184 Rocket 4.0 18:32:42 10° N 18:38:57 76° ENE 18:45:13 10° SSE
Aureole 1 Rocket 3.4 18:34:08 10° NNW 18:39:58 75° ENE 18:44:18 10° SSE
MONITOR-E 4.1 18:37:34 10° SSE 18:40:19 52° ENE 18:43:04 10° N
YAOGAN 6 4.1 18:36:52 10° S 18:40:21 41° W 18:43:53 10° NNW
SJ-6B 3.7 18:39:21 10° SE 18:43:02 33° ENE 18:46:43 10° N
Cosmos 1707 3.6 18:40:01 10° N 18:43:31 30° ENE 18:47:01 10° SE
Cosmos 1378 3.3 18:40:41 10° NNW 18:44:28 78° W 18:48:12 10° S
MOS 1 4.4 18:38:52 10° SSE 18:44:29 64° ENE 18:50:07 10° N
Ariane Rocket 3.0 18:39:55 10° SSE 18:44:59 90° SW 18:50:07 10° NNW
Okean 1 Rocket 3.7 18:41:16 10° SSE 18:45:10 34° E 18:49:08 10° NNE
Resurs 01 Rocket 3.3 18:42:25 10° E 18:45:22 18° ENE 18:48:20 10° NNE
Meteor 1-4 Rocket 4.2 18:43:16 10° NNE 18:45:38 17° ENE 18:47:52 11° ESE
SL-16 R/B 3.7 18:43:02 10° NNW 18:47:22 22° NE 18:51:41 10° E
Okean 2 Rocket 3.5 18:43:23 10° SSW 18:47:50 70° WNW 18:52:22 10° N
Cosmos 2333 4.4 18:42:32 10° NNW 18:48:12 77° WSW 18:53:53 10° SSE
Cosmos 1939 Rocket 2.9 18:45:25 10° SSE 18:49:17 81° WSW 18:53:10 10° NNW
GP-B 3.1 18:45:33 10° N 18:49:59 64° E 18:54:23 10° S
NOSS 3-4 (A) 3.9 18:44:21 10° NW 18:51:12 71° NE 18:58:44 10° SE
NOSS 3-4 (C) 3.9 18:44:28 10° NW 18:51:19 70° NE 18:58:50 10° SE
USA 186 2.4 18:49:32 10° SE 18:52:42 39° ENE 18:55:57 10° N
Cosmos 407 Rocket 4.1 18:48:57 10° NNW 18:53:45 37° NE 18:58:21 11° ESE
COSMOS 2428 2.7 18:51:28 10° NNW 18:57:12 90° E 19:02:53 10° SSE
Cosmos 2219 Rocket 2.2 18:51:54 10° NNW 18:57:33 89° ENE 19:03:10 10° SSE
SJ-11-01 4.3 18:57:03 10° SSE 19:01:45 65° ENE 19:06:29 10° N
HJ-1C 3.6 18:58:54 10° S 19:02:15 73° WSW 19:05:40 10° NNW
NOSS 3-3 (A) 4.0 18:56:21 10° SSW 19:02:21 76° SE 19:09:06 10° NE
NOSS 3-3 (C) 4.0 18:56:28 10° SSW 19:02:27 75° SE 19:09:12 10° NE
CZ-2D R/B 4.4 19:01:58 10° S 19:05:37 45° W 19:09:19 10° NNW
Cosmos 1536 Rocket 4.4 19:01:54 10° NNW 19:06:09 54° W 19:10:21 10° S
Meteor 1-12 Rocket 4.2 19:02:37 10° S 19:08:20 76° E 19:14:01 10° NNE
Cosmos 2360 Rocket 4.1 19:03:38 10° NW 19:08:29 30° WSW 19:13:20 10° SSW
SPOT 3 Rocket 3.6 19:03:36 10° SSE 19:08:40 61° ENE 19:13:45 10° N
Cosmos 1025 Rocket 3.6 19:04:43 10° NNW 19:08:56 59° W 19:13:07 10° S
Nadezhda 1 Rocket 3.9 19:07:37 10° S 19:13:40 75° E 19:19:45 10° NNE
Timation 2 Rocket 4.0 19:10:06 10° SSW 19:16:42 83° ESE 19:23:02 10° NNE
Cosmos 1975 4.5 19:12:59 10° SW 19:16:43 38° WNW 19:20:29 10° N
Cosmos 1892 Rocket 4.0 19:13:12 10° N 19:17:28 41° ENE 19:20:44 16° SE
USA 234 3.9 19:11:33 10° ENE 19:17:53 54° N 19:24:14 10° W
Meteor 2-15 Rocket 4.4 19:11:59 10° S 19:18:08 82° E 19:24:19 10° NNE
Okean 1-7 Rocket 4.0 19:15:01 10° N 19:19:16 44° ENE 19:22:38 15° SE
NOSS 0 Rocket 3.9 19:14:16 10° NNW 19:20:30 84° ENE 19:26:26 11° SSE
Cosmos 1295 Rocket 4.4 19:16:42 10° N 19:22:57 75° E 19:29:04 10° SSE
Cosmos 2219 3.7 19:18:02 10° S 19:23:13 36° ESE 19:28:25 10° NE
Cosmos 1140 Rocket 3.9 19:18:56 10° NNW 19:23:55 44° ENE 19:27:07 20° ESE
Cosmos 2227 Rocket 3.2 19:20:31 10° SSE 19:24:49 23° ESE 19:29:09 10° NE
ADEOS Rocket 3.7 19:19:11 10° NNE 19:26:06 46° E 19:33:24 10° SSE
CZ-2C R/B 3.5 19:26:44 10° NNE 19:31:14 77° ESE 19:35:40 10° S
Cosmos 1437 Rocket 3.8 19:28:03 10° N 19:31:21 26° ENE 19:32:05 24° E
Cosmos 1371 Rocket 4.5 19:28:26 10° S 19:33:19 39° ESE 19:38:17 10° NE
RESURS DK-1 4.4 19:31:36 10° N 19:34:11 16° NE 19:35:39 14° ENE
ATLAS 2AS CENTAUR R/B 3.3 19:27:17 10° NW 19:34:52 60° WSW 19:41:50 10° SSE
Cosmos 2297 Rocket 3.0 19:31:02 10° SSE 19:35:48 29° ESE 19:40:34 10° NE
ARGOS 3.1 19:31:12 11° SSE 19:36:17 73° ENE 19:41:41 10° NNW
H-2A R/B 1.9 19:35:32 12° SSE 19:40:05 80° ENE 19:45:09 10° NNW
Cosmos 405 Rocket 3.0 19:40:22 30° SE 19:41:31 40° E 19:45:01 10° NNE
Cosmos 1626 4.5 19:40:59 10° NE 19:41:29 11° NE 19:41:29 11° NE
Cosmos 1544 4.0 19:41:37 10° SSW 19:45:06 49° WNW 19:48:39 10° N
Cosmos 676 Rocket 4.2 19:40:22 10° NNW 19:45:34 53° ENE 19:48:04 29° ESE
Meteor 1-24 Rocket 4.2 19:40:25 10° N 19:45:52 44° ENE 19:48:37 27° SE
Cosmos 2341 Rocket 4.0 19:39:47 10° N 19:46:06 88° E 19:52:19 10° S
SAR-Lupe-2 4.4 19:42:44 10° N 19:46:15 51° WNW 19:49:43 10° SSW
Cosmos 1461 2.9 19:42:34 10° SW 19:46:34 73° NW 19:50:33 10° NE
ASTEX 1 3.7 19:45:04 10° N 19:49:56 68° W 19:54:47 10° SSW
Cosmos 2333 Rocket 3.5 19:45:06 10° NW 19:50:22 40° WSW 19:55:38 10° S
Cosmos 2181 Rocket 4.0 19:46:00 10° S 19:52:06 61° E 19:58:21 10° NNE
GENESIS II 4.4 19:52:26 10° NW 19:56:33 65° NE 19:57:40 44° ESE
Meteor 2-5 Rocket 3.7 19:54:19 10° N 20:00:07 73° ENE 20:03:38 25° SSE
SL-24 R/B 4.2 19:58:07 31° SSE 20:00:13 73° ENE 20:05:09 10° N
MetOp-A 4.0 19:57:58 25° SSE 20:01:13 78° ENE 20:06:36 10° NNW
Cosmos 1544 Rocket 3.8 20:00:47 40° SE 20:01:48 48° E 20:06:07 10° NNE
Cosmos 1455 Rocket 3.1 20:00:39 30° SSE 20:02:38 59° E 20:07:02 10° NNE
Cosmos 1190 Rocket 4.1 19:57:24 10° NNW 20:02:44 77° WSW 20:05:52 25° SSE
Cosmos 2237 Rocket 2.3 19:57:25 10° NNW 20:03:08 73° WSW 20:06:39 24° SSE
Cosmos 1805 4.2 20:04:52 31° ENE 20:04:52 31° ENE 20:07:28 10° NNE
ERBS 2.8 20:00:54 10° NW 20:04:12 46° NNE 20:04:33 44° NE
Cosmos 389 Rocket 3.3 20:01:56 10° NNW 20:05:15 47° W 20:06:59 24° SSW
In-Cosmos 22 4.3 20:00:01 10° NNW 20:05:21 73° W 20:09:45 16° S
SL-08 RB Rocket 3.7 20:03:31 26° SSE 20:06:11 85° WSW 20:10:54 10° NNW
CZ-4C R/B 4.2 20:01:42 10° WNW 20:06:47 27° N 20:12:37 10° NE
Cosmos 2218 Rocket 4.0 20:01:12 10° N 20:07:38 80° ENE 20:11:47 23° SSE
Cosmos 1980 4.1 20:06:23 10° NW 20:11:58 60° WSW 20:15:25 23° S
Cosmos 1023 Rocket 4.4 20:07:18 10° NNW 20:12:30 82° WSW 20:14:45 35° SSE
Cosmos 2366 rocket 3.9 20:07:32 10° N 20:13:57 82° E 20:17:48 26° SSE
Cosmos 1674 2.5 20:10:48 10° N 20:14:32 69° ENE 20:14:32 69° ENE
Cosmos 1850 Rocket 4.5 20:12:32 10° NNW 20:17:28 41° ENE 20:18:18 38° E
SL-8 R/B 3.6 20:13:20 10° WSW 20:18:06 66° S 20:18:53 55° SE
Resurs 1-3 4.1 20:16:52 25° S 20:19:15 58° W 20:23:36 10° NNW
Cosmos 864 Rocket 4.4 20:13:12 10° N 20:19:27 86° E 20:22:56 29° SSE
Cosmos 1626 Rocket 3.5 20:15:25 10° N 20:19:43 61° ENE 20:19:57 60° E
Meteor 1-4 Rocket 3.5 20:17:32 10° NNW 20:20:58 43° W 20:22:06 31° SW
SPOT 5 4.0 20:21:03 27° ENE 20:21:04 27° ENE 20:25:14 10° N
Resurs 01 Rocket 1.8 20:19:37 36° S 20:21:22 71° WSW 20:25:50 10° NNW
Meteor 1-22 Rocket 4.5 20:19:02 35° SSE 20:21:23 56° E 20:27:21 10° NNE
CZ-2C R/B 3.2 20:20:05 29° S 20:22:51 76° WSW 20:28:23 10° NNW
Cosmos 1821 Rocket 4.4 20:17:19 10° N 20:23:11 42° ENE 20:24:15 39° E
SL-8 Rocket 4.2 20:19:10 10° NNW 20:25:20 69° W 20:29:57 18° S
Landsat 7 4.4 20:29:41 41° ENE 20:29:41 41° ENE 20:34:05 10° N
KORONAS-FOTON 3.8 20:26:21 10° N 20:29:55 78° NNW 20:29:55 78° NNW
SL-14 R/B 4.3 20:27:34 10° N 20:30:22 34° NE 20:30:22 34° NE
Cosmos 2056 Rocket 3.5 20:26:55 10° SSW 20:32:21 89° WNW 20:37:48 10° NNE
DMSP B5D2-2 4.0 20:27:06 10° NNE 20:32:24 69° ESE 20:33:46 49° SSE
SL-16 R/B 2.1 20:26:41 10° NNW 20:32:24 81° ENE 20:33:46 54° SE
SPOT 1/Viking Rocket 3.8 20:38:50 50° ENE 20:39:02 50° ENE 20:44:02 10° N
Cosmos 1602 Rocket 3.5 20:35:11 10° N 20:39:21 75° NE 20:39:21 75° NE
Cosmos 1420 Rocket 4.5 20:41:55 44° ENE 20:41:55 44° ENE 20:45:57 10° NNE
Cosmos 1766 3.7 20:44:58 60° NNW 20:44:58 60° NNW 20:48:17 10° N
Cosmos 1624 Rocket 4.2 20:39:32 10° SSW 20:44:43 70° WNW 20:49:56 10° NNE
Cosmos 1741 Rocket 4.0 20:40:33 10° NNW 20:45:52 65° ENE 20:46:11 63° E
Cosmos 2082 3.8 20:50:22 57° E 20:50:22 57° E 20:55:19 10° NE
IGS 5A 4.4 20:51:34 39° NNE 20:51:34 39° NNE 20:54:30 10° N
BREEZE M DEB (TANK) 3.1 20:52:19 10° W 20:54:23 51° WSW 20:54:23 51° WSW
CZ-2C R/B 2.6 20:50:23 10° NNE 20:55:49 68° E 20:55:49 68° E
ERS-1 Rocket 3.0 21:00:29 68° NE 21:00:29 68° NE 21:05:11 10° N
USA 234 3.7 20:57:40 34° ENE 21:00:24 57° NNE 21:06:48 10° WNW
Terra 2.8 21:02:05 36° NE 21:02:05 36° NE 21:05:33 10° N
Spot 2 Rocket 4.0 21:00:20 48° SW 21:01:16 55° W 21:06:14 10° NNW
Cosmos 2219 4.1 21:01:42 10° SW 21:07:16 48° NW 21:12:51 10° NNE
Cosmos 1437 Rocket 4.4 21:04:16 10° NNW 21:07:30 29° W 21:07:30 29° W
Cosmos 2227 Rocket 2.4 21:02:42 10° SW 21:08:20 71° WNW 21:14:02 10° NNE
Meteor 1-21 Rocket 4.3 21:05:31 10° N 21:11:15 67° ENE 21:11:15 67° ENE
ADEOS Rocket 4.3 21:04:49 10° N 21:11:36 49° WNW 21:18:53 10° SW
RESURS DK-1 3.5 21:08:45 10° NNW 21:11:33 41° NNW 21:11:33 41° NNW
Cosmos 1626 4.1 21:14:16 10° NNW 21:16:03 27° NNW 21:16:03 27° NNW
Cosmos 2297 Rocket 2.7 21:13:56 10° SW 21:19:31 58° NW 21:25:08 10° NNE
H-2A R/B 4.5 21:17:13 10° SW 21:20:13 16° W 21:23:14 10° NW
Cosmos 1452 Rocket 4.1 21:28:21 51° NNE 21:28:21 51° NNE 21:32:18 10° NNE
Cosmos 1934 Rocket 3.9 21:23:46 10° N 21:29:35 77° NE 21:29:35 77° NE
Cosmos 1943 3.6 21:31:19 10° NNW 21:36:12 56° NNE 21:36:12 56° NNE
Nadezhda 3 Rocket 4.3 21:51:04 57° W 21:51:36 59° WNW 21:57:44 10° N
CZ-4C R/B 3.9 21:51:13 10° NW 21:57:11 36° NNE 21:59:37 29° ENE
SPOT 5 4.2 22:00:17 37° NW 22:00:17 37° NW 22:03:41 10° NNW
Cosmos 1605 Rocket 4.2 21:59:13 10° N 22:04:48 69° NNW 22:04:48 69° NNW
SL-16 R/B 4.1 22:11:53 10° NW 22:15:39 20° W 22:15:39 20° W
Terra 4.0 22:40:59 22° NW 22:40:59 22° NW 22:43:07 10° NNW
USA 234 3.7 22:45:01 53° WNW 22:45:01 53° WNW 22:49:52 10° WNW
Mayak 1.8 23:13:05 10° N 23:13:40 14° N 23:13:40 14° N
ATLAS CENTAUR R/B 4.5 23:22:56 13° NE 23:22:56 13° NE 23:23:30 10° NE
Cosmos 2263 Rocket 3.7 23:23:14 32° N 23:23:14 32° N 23:26:23 10° NNE
Cosmos 1833 Rocket 4.4 23:27:57 10° NNW 23:31:51 28° NNE 23:31:51 28° NNE
CZ-4C R/B 3.4 23:39:44 10° NW 23:44:45 53° NNW 23:44:45 53° NNW
USA 267 4.2 23:44:06 10° ENE 23:47:58 39° NE 23:47:58 39° NE
SL-16 R/B 4.2 23:50:33 24° ENE 23:51:16 24° NE 23:56:05 10° N
